This is the latest recevied weather packets stored in our database for station/object KN6ZYR. If no packets are shown the sender has not sent any weather packets the latest 10 day(s).
| Time | Temp. | Humidity | Pressure | Rain* | Wind** | Luminosity | Snow |
|---|---|---|---|---|---|---|---|
| 1778002922 | 12.22° C | 58% | 1017.3 hPa | 0 mm | - | 905 W/m² | - |
| 1778002619 | 12.78° C | 61% | 1017.1 hPa | 0 mm | - | 666 W/m² | - |
| 1778002315 | 12.22° C | 64% | 1017.1 hPa | 0 mm | - | 1227 W/m² | - |
| 1778002013 | 12.22° C | 63% | 1017.2 hPa | 0 mm | - | 405 W/m² | - |
| 1778001709 | 11.67° C | 63% | 1017.3 hPa | 0 mm | - | 822 W/m² | - |
| 1778001409 | 12.22° C | 65% | 1017.2 hPa | 0 mm | - | 401 W/m² | - |
| 1778001107 | 12.78° C | 64% | 1017.1 hPa | 0 mm | - | 741 W/m² | - |
| 1778000804 | 12.22° C | 65% | 1017.1 hPa | 0 mm | - | 1021 W/m² | - |
| 1778000501 | 11.67° C | 63% | 1017.2 hPa | 0 mm | - | 624 W/m² | - |
| 1778000201 | 11.11° C | 62% | 1017.1 hPa | 0 mm | - | 377 W/m² | - |
| 1777999897 | 10.56° C | 65% | 1017 hPa | 0 mm | - | 297 W/m² | - |
| 1777999592 | 10.56° C | 68% | 1016.8 hPa | 0 mm | - | 210 W/m² | - |
| 1777999290 | 10.56° C | 71% | 1017 hPa | 0 mm | - | 171 W/m² | - |
| 1777998988 | 10.56° C | 71% | 1016.8 hPa | 0 mm | - | 158 W/m² | - |
| 1777998686 | 10° C | 70% | 1017 hPa | 0 mm | - | 150 W/m² | - |
| 1777998383 | 10° C | 73% | 1016.8 hPa | 0 mm | - | 146 W/m² | - |
| 1777998081 | 10° C | 72% | 1016.7 hPa | 0 mm | - | 124 W/m² | - |
| 1777997778 | 10° C | 74% | 1016.7 hPa | 0 mm | - | 125 W/m² | - |
| 1777997475 | 10° C | 74% | 1016.6 hPa | 0 mm | - | 140 W/m² | - |
| 1777997173 | 10° C | 73% | 1016.4 hPa | 0 mm | - | 133 W/m² | - |
| 1777996870 | 10° C | 74% | 1016.8 hPa | 0 mm | - | 135 W/m² | - |
| 1777996565 | 10° C | 76% | 1016.6 hPa | 0 mm | - | 137 W/m² | - |
| 1777996263 | 10° C | 76% | 1016.6 hPa | 0 mm | - | 146 W/m² | - |
| 1777995958 | 10° C | 77% | 1016.6 hPa | 0 mm | - | 204 W/m² | - |
| 1777995655 | 9.44° C | 77% | 1016.6 hPa | 0 mm | - | 205 W/m² | - |
* Rain latest hour (hover to see other rain measurements)
** Current wind speed in m/s (hover to see current wind gust speed)